TimePDT,TemperatureF,Dew PointF,Humidity,Sea Level PressureIn,VisibilityMPH,Wind Direction,Wind SpeedMPH,Gust SpeedMPH,PrecipitationIn,Events,Conditions,WindDirDegrees,DateUTC
12:03 AM,57.2,53.6,88,30.06,10.0,West,4.6,-,N/A,,Overcast,260,2013-08-01 07:03:00
12:58 AM,57.4,53.1,85,30.08,10.0,WNW,4.6,-,N/A,,Overcast,290,2013-08-01 07:58:00
1:13 AM,57.2,53.6,88,30.06,10.0,WSW,3.5,-,N/A,,Overcast,240,2013-08-01 08:13:00
1:43 AM,57.2,53.6,88,30.07,10.0,Variable,2.3,-,N/A,,Overcast,0,2013-08-01 08:43:00
1:58 AM,56.7,52.7,87,30.07,10.0,South,9.2,-,N/A,,Overcast,190,2013-08-01 08:58:00
2:08 AM,57.2,51.8,82,30.06,10.0,South,6.9,-,N/A,,Overcast,180,2013-08-01 09:08:00
2:38 AM,55.4,51.8,88,30.06,10.0,SSW,5.8,-,N/A,,Overcast,210,2013-08-01 09:38:00
2:58 AM,55.6,52.3,89,30.06,10.0,South,4.6,-,N/A,,Overcast,180,2013-08-01 09:58:00
3:13 AM,55.4,51.8,88,30.05,10.0,South,5.8,-,N/A,,Overcast,190,2013-08-01 10:13:00
3:43 AM,55.4,51.8,88,30.06,10.0,SSW,5.8,-,N/A,,Overcast,210,2013-08-01 10:43:00
3:58 AM,55.4,51.8,88,30.07,10.0,SSW,4.6,-,N/A,,Overcast,200,2013-08-01 10:58:00
4:03 AM,55.4,51.8,88,30.06,10.0,SW,4.6,-,N/A,,Overcast,220,2013-08-01 11:03:00
4:33 AM,55.4,51.8,88,30.07,10.0,SSW,4.6,-,N/A,,Overcast,200,2013-08-01 11:33:00
4:58 AM,55.6,51.6,87,30.07,10.0,South,5.8,-,N/A,,Overcast,180,2013-08-01 11:58:00
5:23 AM,55.4,51.8,88,30.06,10.0,South,4.6,-,N/A,,Overcast,190,2013-08-01 12:23:00
5:53 AM,55.4,51.8,88,30.07,10.0,SSW,2.3,-,N/A,,Overcast,210,2013-08-01 12:53:00
5:58 AM,55.2,52.2,89,30.08,10.0,SSW,2.3,-,N/A,,Overcast,210,2013-08-01 12:58:00
6:33 AM,55.4,51.8,88,30.07,10.0,SW,4.6,-,N/A,,Overcast,230,2013-08-01 13:33:00
6:53 AM,55.4,51.8,88,30.08,10.0,SW,3.5,-,N/A,,Overcast,220,2013-08-01 13:53:00
6:58 AM,55.4,52.3,89,30.09,10.0,SW,2.3,-,N/A,,Overcast,220,2013-08-01 13:58:00
7:13 AM,55.4,51.8,88,30.08,10.0,SSW,2.3,-,N/A,,Overcast,210,2013-08-01 14:13:00
7:58 AM,55.9,52.5,88,30.09,10.0,Calm,Calm,-,N/A,,Overcast,0,2013-08-01 14:58:00
8:13 AM,55.4,51.8,88,30.08,10.0,Variable,2.3,-,N/A,,Overcast,0,2013-08-01 15:13:00
8:33 AM,57.2,51.8,82,30.08,10.0,SSE,3.5,-,N/A,,Overcast,150,2013-08-01 15:33:00
8:58 AM,57.6,52.2,82,30.08,10.0,ESE,2.3,-,N/A,,Overcast,120,2013-08-01 15:58:00
9:58 AM,60.1,52.3,76,30.08,10.0,SSE,4.6,-,N/A,,Overcast,160,2013-08-01 16:58:00
10:28 AM,60.8,51.8,72,30.06,10.0,Variable,4.6,-,N/A,,Overcast,0,2013-08-01 17:28:00
10:58 AM,61.3,52.2,72,30.07,10.0,SSW,8.1,-,N/A,,Overcast,200,2013-08-01 17:58:00
11:58 AM,62.6,52.5,70,30.08,10.0,South,11.5,-,N/A,,Overcast,170,2013-08-01 18:58:00
12:58 PM,62.8,52.7,70,30.08,10.0,SSW,10.4,-,N/A,,Overcast,210,2013-08-01 19:58:00
1:58 PM,63.9,52.9,67,30.08,10.0,South,9.2,-,N/A,,Overcast,170,2013-08-01 20:58:00
2:58 PM,65.7,53.2,64,30.08,10.0,SSW,11.5,-,N/A,,Overcast,200,2013-08-01 21:58:00
3:58 PM,67.1,53.8,62,30.06,10.0,SSW,10.4,-,N/A,,Overcast,200,2013-08-01 22:58:00
4:03 PM,68.0,53.6,60,30.05,10.0,SSW,11.5,-,N/A,,Overcast,200,2013-08-01 23:03:00
4:38 PM,66.2,55.4,68,30.06,10.0,South,12.7,19.6,N/A,,Overcast,170,2013-08-01 23:38:00
4:43 PM,66.2,55.4,68,30.05,10.0,South,12.7,-,N/A,,Overcast,170,2013-08-01 23:43:00
4:58 PM,65.1,54.3,68,30.07,10.0,South,11.5,-,N/A,,Overcast,190,2013-08-01 23:58:00
5:43 PM,64.4,53.6,68,30.05,10.0,South,9.2,-,N/A,,Overcast,190,2013-08-02 00:43:00
5:48 PM,64.4,53.6,68,30.05,10.0,South,9.2,-,N/A,,Overcast,170,2013-08-02 00:48:00
5:53 PM,64.4,53.6,68,30.05,10.0,South,10.4,-,N/A,,Overcast,170,2013-08-02 00:53:00
5:58 PM,64.8,54.0,68,30.07,10.0,SSE,12.7,-,N/A,,Overcast,150,2013-08-02 00:58:00
6:03 PM,64.4,53.6,68,30.06,10.0,South,8.1,-,N/A,,Overcast,170,2013-08-02 01:03:00
6:53 PM,64.4,53.6,68,30.06,10.0,South,5.8,-,N/A,,Overcast,180,2013-08-02 01:53:00
6:58 PM,64.2,54.0,69,30.07,10.0,South,5.8,-,N/A,,Overcast,180,2013-08-02 01:58:00
7:33 PM,64.4,53.6,68,30.07,10.0,South,6.9,-,N/A,,Overcast,190,2013-08-02 02:33:00
7:58 PM,64.0,53.8,69,30.08,10.0,SSW,6.9,-,N/A,,Overcast,200,2013-08-02 02:58:00
8:23 PM,64.4,53.6,68,30.06,10.0,SW,9.2,-,N/A,,Overcast,220,2013-08-02 03:23:00
8:58 PM,63.1,53.2,70,30.08,10.0,SSW,9.2,-,N/A,,Overcast,200,2013-08-02 03:58:00
9:58 PM,61.7,53.6,75,30.09,10.0,SSW,5.8,-,N/A,,Overcast,200,2013-08-02 04:58:00
10:58 PM,60.6,53.8,78,30.10,10.0,South,6.9,-,N/A,,Overcast,190,2013-08-02 05:58:00
11:58 PM,59.7,53.4,80,30.10,10.0,Variable,6.9,-,N/A,,Mostly Cloudy,0,2013-08-02 06:58:00